Regional Weather Roundup
Issued by NWS

Home | Current Version | Previous Version | Text Only | Print | Product List | Glossary On
Versions: 1 2 3 4 5 6 7 8 9 10 11 12 13 14 15 16 17 18 19 20 21 22 23 24 25 26 27 28
000
ASUS44 KBMX 080210
RWRAL

ALABAMA REGIONAL WEATHER ROUNDUP
NATIONAL WEATHER SERVICE BIRMINGHAM AL
800 PM CST WED DEC 07 2016

NOTE: "FAIR" INDICATES FEW OR NO CLOUDS BELOW 12,000 FEET
WITH NO SIGNIFICANT WEATHER AND/OR OBSTRUCTIONS TO VISIBILITY.

THE REMARK "TC" DENOTES TEMPERATURE IN DEGREES CELSIUS.

ALZ001>011-014-016>018-020-080300-
NORTH ALABAMA

CITY           SKY/WX    TMP DP  RH WIND       PRES   REMARKS
MUSCLE SHOALS  MOCLDY    42  34  73 CALM      30.19F
HUNTSVILLE     CLOUDY    43  35  73 N5        30.18F
DECATUR        PTCLDY    41  37  86 N3        30.19F
HALEYVILLE     FAIR      40  34  79 CALM      30.18F
GADSDEN        CLOUDY    46  38  73 NW10      30.17F
$$

ALZ012-013-022-023-030>036-040>044-080300-
WEST CENTRAL ALABAMA

CITY           SKY/WX    TMP DP  RH WIND       PRES   REMARKS
TUSCALOOSA     CLOUDY    49  42  77 N7        30.18R
$$

ALZ015-024>027-033>036-040>044-080300-
CENTRAL ALABAMA

CITY           SKY/WX    TMP DP  RH WIND       PRES   REMARKS
BIRMINGHAM     CLOUDY    47  40  76 N8        30.18F
MONTGOMERY     CLOUDY    54  44  69 W7        30.16S
SHELBY CO ARPT CLOUDY    49  42  77 NW7       30.15F
MAXWELL AFB    CLOUDY    54  46  76 NW3       30.15S
GREENVILLE     CLOUDY    53  46  77 N7        30.15R
$$

ALZ019-021-028-029-037-038-045>048-080300-
EAST CENTRAL ALABAMA

CITY           SKY/WX    TMP DP  RH WIND       PRES   REMARKS
ANNISTON       CLOUDY    48  38  68 NW6       30.16S
ALEXANDER CITY CLOUDY    55  48  79 CALM      30.14S
AUBURN         CLOUDY    51  46  83 NW8       30.15R
$$

ALZ051>064-080300-
SOUTHWEST ALABAMA

CITY           SKY/WX    TMP DP  RH WIND       PRES   REMARKS
MOBILE         CLOUDY    58  51  78 N3        30.16R
BROOKLEY FIELD CLOUDY    61  53  75 N3        30.16R
EVERGREEN      MOCLDY    49  47  93 N3        30.15S
$$

ALZ049-050-065>069-080300-
SOUTHEAST ALABAMA

CITY           SKY/WX    TMP DP  RH WIND       PRES   REMARKS
DOTHAN         CLOUDY    53  48  83 NW6       30.18R
OZARK          CLEAR     50  46  86 N5        30.14R
TROY           CLOUDY    53  49  86 CALM      30.16R
EUFAULA        CLOUDY    54  48  80 CALM      30.14R
$$




USA.gov is the U.S. government's official web portal to all federal, state and local government web resources and services.